{"data":{"norad_id":55487,"epoch":"2026-05-25T01:15:53.006112Z","epoch_age_seconds":66405,"freshness":"FRESH","line1":"1 55487U 23015AQ  26145.05269683  .00000039  00000+0  10932-4 0  9997","line2":"2 55487  43.0032 268.5071 0001007 281.1492  78.9246 15.27575713182276","mean_motion":15.27575713,"eccentricity":0.0001007,"inclination_deg":43.0032,"raan_deg":268.5071,"arg_perigee_deg":281.1492,"mean_anomaly_deg":78.9246,"bstar":1.0932e-5,"rev_number":18227,"period_min":94.267013264566,"perigee_km":482.37101015737,"apogee_km":483.75285562246,"semimajor_km":6861.1989328899,"source":"CELESTRAK","updated_at":"2026-05-25T13:38:17.810212Z"}}